• In Uzbekistan
  • List of Countries
  • For 7 days
  • Water Temperature
  • Satellite Maps
  • Weather Map
  • Weather Widgets
  • user-avatar
    Login

    Hourly Weather Escaldes-Engordany

    Today, 24 February, Friday

    Time Temperature Precipitation Wind Pressure Humidity
    00:00 +2°C° 0 mm 1 mps 635 mmHg 86%
    01:00 +2°C° 0 mm 1 mps 635 mmHg 87%
    02:00 +1°C° 0 mm 2 mps 635 mmHg 89%
    03:00 +1°C° 0 mm 2 mps 635 mmHg 90%
    04:00 +1°C° 0 mm 2 mps 635 mmHg 91%
    05:00 +1°C° 0 mm 2 mps 635 mmHg 91%
    06:00 +1°C° 0 mm 2 mps 635 mmHg 92%
    07:00 +2°C° 0 mm 2 mps 635 mmHg 89%
    08:00 +3°C° 0 mm 2 mps 636 mmHg 86%
    09:00 +3°C° 0 mm 3 mps 636 mmHg 83%
    10:00 +4°C° 0 mm 3 mps 636 mmHg 80%
    11:00 +4°C° 0 mm 3 mps 637 mmHg 77%
    12:00 +4°C° 0 mm 3 mps 637 mmHg 74%
    13:00 +4°C° 0 mm 4 mps 637 mmHg 72%
    14:00 +4°C° 0 mm 4 mps 637 mmHg 70%
    15:00 +4°C° 0 mm 4 mps 637 mmHg 69%
    16:00 +2°C° 0 mm 3 mps 636 mmHg 74%
    17:00 0°C° 0 mm 3 mps 636 mmHg 79%
    18:00 -1°C° 0 mm 3 mps 636 mmHg 84%
    19:00 -2°C° 0 mm 3 mps 636 mmHg 84%
    20:00 -2°C° 0 mm 3 mps 637 mmHg 83%
    21:00 -2°C° 0 mm 3 mps 637 mmHg 82%
    22:00 -4°C° 0 mm 3 mps 637 mmHg 81%
    23:00 -4°C° 0 mm 3 mps 637 mmHg 80%

    Tomorrow, 25 February, Saturday

    Time Temperature Precipitation Wind Pressure Humidity
    00:00 -4°C° 0 mm 3 mps 637 mmHg 80%
    01:00 -4°C° 0 mm 3 mps 637 mmHg 80%
    02:00 -5°C° 0 mm 3 mps 637 mmHg 80%
    03:00 -5°C° 0 mm 3 mps 637 mmHg 80%
    04:00 -4°C° 0 mm 2 mps 637 mmHg 80%
    05:00 -4°C° 0 mm 2 mps 637 mmHg 80%
    06:00 -5°C° 0 mm 2 mps 637 mmHg 81%
    07:00 -2°C° 0 mm 2 mps 638 mmHg 72%
    08:00 +1°C° 0 mm 2 mps 639 mmHg 63%
    09:00 +4°C° 0 mm 1 mps 640 mmHg 55%
    10:00 +6°C° 0 mm 1 mps 640 mmHg 51%
    11:00 +7°C° 0 mm 1 mps 641 mmHg 47%
    12:00 +9°C° 0 mm 1 mps 641 mmHg 44%
    13:00 +9°C° 0 mm 1 mps 641 mmHg 46%
    14:00 +9°C° 0 mm 1 mps 641 mmHg 48%
    15:00 +9°C° 0 mm 1 mps 640 mmHg 50%
    16:00 +6°C° 0 mm 1 mps 639 mmHg 62%
    17:00 +3°C° 0 mm 1 mps 639 mmHg 74%
    18:00 +1°C° 0 mm 1 mps 638 mmHg 85%
    19:00 0°C° 0 mm 1 mps 638 mmHg 86%
    20:00 0°C° 0 mm 1 mps 638 mmHg 87%
    21:00 0°C° 0 mm 1 mps 638 mmHg 87%
    22:00 -1°C° 0 mm 1 mps 638 mmHg 87%
    23:00 -1°C° 0 mm 1 mps 638 mmHg 87%

    Day after tomorrow, 26 February, Sunday

    Time Temperature Precipitation Wind Pressure Humidity
    00:00 -1°C° 0 mm 1 mps 638 mmHg 87%
    01:00 -1°C° 0 mm 1 mps 638 mmHg 85%
    02:00 -1°C° 0 mm 1 mps 638 mmHg 83%
    03:00 -1°C° 0 mm 1 mps 638 mmHg 81%
    04:00 -1°C° 0 mm 1 mps 638 mmHg 79%
    05:00 -1°C° 0 mm 1 mps 638 mmHg 77%
    06:00 -1°C° 0 mm 1 mps 638 mmHg 75%
    07:00 +2°C° 0 mm 1 mps 639 mmHg 67%
    08:00 +4°C° 0 mm 1 mps 640 mmHg 60%
    09:00 +7°C° 0 mm 1 mps 641 mmHg 52%
    10:00 +8°C° 0 mm 1 mps 641 mmHg 50%
    11:00 +10°C° 0 mm 1 mps 642 mmHg 47%
    12:00 +11°C° 0 mm 1 mps 642 mmHg 45%
    13:00 +11°C° 0 mm 1 mps 641 mmHg 48%
    14:00 +11°C° 0 mm 1 mps 641 mmHg 50%
    15:00 +10°C° 0 mm 1 mps 640 mmHg 53%
    16:00 +8°C° 0 mm 1 mps 639 mmHg 66%
    17:00 +5°C° 0 mm 1 mps 638 mmHg 78%
    18:00 +2°C° 0 mm 1 mps 637 mmHg 91%
    19:00 +1°C° 0 mm 1 mps 637 mmHg 91%
    20:00 0°C° 0 mm 0 mps 637 mmHg 92%
    21:00 -1°C° 0 mm 0 mps 636 mmHg 92%
    22:00 -1°C° 0 mm 0 mps 636 mmHg 92%
    23:00 -1°C° 0 mm 0 mps 636 mmHg 91%

    27 February, Monday

    Time Temperature Precipitation Wind Pressure Humidity
    00:00 0°C° 0 mm 1 mps 636 mmHg 91%
    01:00 0°C° 0 mm 1 mps 635 mmHg 90%
    02:00 0°C° 0 mm 1 mps 635 mmHg 89%
    03:00 0°C° 0 mm 1 mps 635 mmHg 88%
    04:00 0°C° 0 mm 1 mps 634 mmHg 85%
    05:00 0°C° 0 mm 1 mps 634 mmHg 83%
    06:00 0°C° 0 mm 1 mps 634 mmHg 80%
    07:00 +2°C° 0 mm 1 mps 635 mmHg 73%
    08:00 +5°C° 0 mm 1 mps 636 mmHg 65%
    09:00 +7°C° 0 mm 1 mps 637 mmHg 58%
    10:00 +8°C° 0 mm 1 mps 637 mmHg 54%
    11:00 +9°C° 0 mm 2 mps 637 mmHg 50%
    12:00 +10°C° 0 mm 2 mps 637 mmHg 46%
    13:00 +10°C° 0 mm 2 mps 637 mmHg 48%
    14:00 +10°C° 0 mm 2 mps 636 mmHg 50%
    15:00 +10°C° 0 mm 2 mps 636 mmHg 52%
    16:00 +7°C° 0 mm 2 mps 635 mmHg 63%
    17:00 +5°C° 0 mm 2 mps 635 mmHg 75%
    18:00 +3°C° 0 mm 1 mps 634 mmHg 86%
    19:00 +3°C° 0.1 mm 1 mps 634 mmHg 89%
    20:00 +2°C° 0.1 mm 1 mps 634 mmHg 91%
    21:00 +2°C° 0.1 mm 1 mps 634 mmHg 93%
    22:00 +2°C° 0 mm 1 mps 634 mmHg 94%
    23:00 0°C° 0 mm 0 mps 634 mmHg 94%

    28 February, Tuesday

    Time Temperature Precipitation Wind Pressure Humidity
    00:00 0°C° 0 mm 0 mps 634 mmHg 94%
    01:00 0°C° 0 mm 0 mps 634 mmHg 94%
    02:00 0°C° 0 mm 0 mps 634 mmHg 94%
    03:00 0°C° 0 mm 0 mps 634 mmHg 95%
    04:00 0°C° 0 mm 0 mps 633 mmHg 94%
    05:00 0°C° 0 mm 1 mps 633 mmHg 94%
    06:00 0°C° 0 mm 1 mps 633 mmHg 94%
    07:00 +2°C° 0 mm 1 mps 634 mmHg 86%
    08:00 +4°C° 0 mm 1 mps 635 mmHg 77%
    09:00 +6°C° 0 mm 1 mps 636 mmHg 69%
    10:00 +7°C° 0 mm 1 mps 636 mmHg 66%
    11:00 +6°C° 0 mm 2 mps 637 mmHg 62%
    12:00 +7°C° 0 mm 2 mps 637 mmHg 58%
    13:00 +7°C° 0.1 mm 2 mps 637 mmHg 59%
    14:00 +7°C° 0.1 mm 2 mps 636 mmHg 61%
    15:00 +7°C° 0.1 mm 2 mps 636 mmHg 62%
    16:00 +6°C° 0 mm 2 mps 636 mmHg 70%
    17:00 +4°C° 0 mm 2 mps 636 mmHg 78%
    18:00 +2°C° 0 mm 2 mps 636 mmHg 86%
    19:00 +2°C° 0 mm 2 mps 636 mmHg 87%
    20:00 +3°C° 0 mm 1 mps 636 mmHg 88%
    21:00 +2°C° 0 mm 1 mps 637 mmHg 88%
    22:00 +2°C° 0 mm 1 mps 637 mmHg 88%
    23:00 +2°C° 0 mm 1 mps 637 mmHg 87%

    1 March, Wednesday

    Time Temperature Precipitation Wind Pressure Humidity
    00:00 +1°C° 0 mm 1 mps 637 mmHg 86%
    01:00 +1°C° 0 mm 1 mps 636 mmHg 87%
    02:00 0°C° 0 mm 1 mps 636 mmHg 88%
    03:00 0°C° 0 mm 1 mps 636 mmHg 88%
    04:00 -1°C° 0 mm 0 mps 636 mmHg 89%
    05:00 -1°C° 0 mm 0 mps 636 mmHg 89%
    06:00 -1°C° 0 mm 0 mps 637 mmHg 90%
    07:00 +1°C° 0 mm 0 mps 638 mmHg 81%
    08:00 +5°C° 0 mm 1 mps 639 mmHg 72%
    09:00 +7°C° 0 mm 1 mps 640 mmHg 63%
    10:00 +8°C° 0 mm 1 mps 640 mmHg 60%
    11:00 +10°C° 0 mm 1 mps 641 mmHg 57%
    12:00 +10°C° 0 mm 2 mps 641 mmHg 54%
    13:00 +10°C° 0 mm 2 mps 641 mmHg 54%
    14:00 +10°C° 0 mm 2 mps 640 mmHg 55%
    15:00 +10°C° 0 mm 2 mps 640 mmHg 56%
    16:00 +7°C° 0 mm 2 mps 639 mmHg 67%
    17:00 +5°C° 0 mm 1 mps 638 mmHg 79%
    18:00 +2°C° 0 mm 1 mps 637 mmHg 90%
    19:00 +1°C° 0 mm 0 mps 637 mmHg 91%
    20:00 0°C° 0 mm 0 mps 637 mmHg 91%
    21:00 0°C° 0 mm 0 mps 637 mmHg 92%
    22:00 0°C° 0 mm 0 mps 637 mmHg 92%
    23:00 -1°C° 0 mm 0 mps 637 mmHg 92%
    Show more